Time,TemperatureF,DewpointF,PressureIn,WindDirection,WindDirectionDegrees,WindSpeedMPH,WindSpeedGustMPH,Humidity,HourlyPrecipIn,Conditions,Clouds,dailyrainin,SoftwareType,DateUTC
2013-05-07 00:03:00,58.0,50.0,-100.00,ENE,70,4.0,6.0,73,-99.99,,,-99.99,,2013-05-07 04:03:00,
2013-05-07 00:12:00,58.0,49.0,-100.00,ENE,60,4.0,6.0,72,-99.99,,,-99.99,,2013-05-07 04:12:00,
2013-05-07 00:23:00,58.0,50.0,-100.00,ENE,75,3.0,7.0,72,-99.99,,,-99.99,,2013-05-07 04:23:00,
2013-05-07 00:33:00,58.0,50.0,-100.00,NE,50,3.0,5.0,72,-99.99,,,-99.99,,2013-05-07 04:33:00,
2013-05-07 00:53:00,59.0,50.0,-100.00,ENE,75,2.0,6.0,71,-99.99,,,-99.99,,2013-05-07 04:53:00,
2013-05-07 01:02:00,59.0,50.0,-100.00,NE,45,2.0,3.0,71,-99.99,,,-99.99,,2013-05-07 05:02:00,
2013-05-07 01:12:00,59.0,50.0,-100.00,NE,35,2.0,4.0,73,-99.99,,,-99.99,,2013-05-07 05:12:00,
2013-05-07 01:22:00,58.0,50.0,-100.00,ENE,65,4.0,6.0,74,-99.99,,,-99.99,,2013-05-07 05:22:00,
2013-05-07 01:32:00,58.0,50.0,-100.00,NE,45,2.0,5.0,75,-99.99,,,-99.99,,2013-05-07 05:32:00,
2013-05-07 01:42:00,58.0,50.0,-100.00,ENE,75,2.0,5.0,75,-99.99,,,-99.99,,2013-05-07 05:42:00,
2013-05-07 01:52:00,58.0,51.0,-100.00,East,85,2.0,4.0,77,-99.99,,,-99.99,,2013-05-07 05:52:00,
2013-05-07 02:02:00,58.0,51.0,-100.00,ENE,60,3.0,4.0,78,-99.99,,,-99.99,,2013-05-07 06:02:00,
2013-05-07 02:12:00,58.0,51.0,-100.00,NE,40,1.0,4.0,79,-99.99,,,-99.99,,2013-05-07 06:12:00,
2013-05-07 02:22:00,57.0,51.0,-100.00,NE,35,2.0,4.0,80,-99.99,,,-99.99,,2013-05-07 06:22:00,
2013-05-07 02:32:00,57.0,51.0,-100.00,NE,40,1.0,2.0,81,-99.99,,,-99.99,,2013-05-07 06:32:00,
2013-05-07 02:42:00,57.0,51.0,-100.00,NNE,15,0.0,2.0,82,-99.99,,,-99.99,,2013-05-07 06:42:00,
2013-05-07 02:52:00,56.0,51.0,-100.00,North,5,1.0,3.0,84,-99.99,,,-99.99,,2013-05-07 06:52:00,
2013-05-07 03:02:00,55.0,51.0,-100.00,North,0,3.0,4.0,85,-99.99,,,-99.99,,2013-05-07 07:02:00,
2013-05-07 03:11:00,55.0,51.0,-100.00,NNE,15,2.0,4.0,86,-99.99,,,-99.99,,2013-05-07 07:11:00,
2013-05-07 03:22:00,55.0,51.0,-100.00,NNE,15,0.0,4.0,87,-99.99,,,-99.99,,2013-05-07 07:22:00,
2013-05-07 03:32:00,55.0,51.0,-100.00,NNE,30,3.0,4.0,87,-99.99,,,-99.99,,2013-05-07 07:32:00,
2013-05-07 03:42:00,55.0,51.0,-100.00,NNE,25,2.0,3.0,88,-99.99,,,-99.99,,2013-05-07 07:42:00,
2013-05-07 03:52:00,55.0,51.0,-100.00,NNE,30,1.0,2.0,88,-99.99,,,-99.99,,2013-05-07 07:52:00,
2013-05-07 04:02:00,54.0,51.0,-100.00,NNE,25,1.0,3.0,88,-99.99,,,-99.99,,2013-05-07 08:02:00,
2013-05-07 04:11:00,54.0,51.0,-100.00,NE,35,2.0,4.0,89,-99.99,,,-99.99,,2013-05-07 08:11:00,
2013-05-07 04:21:00,54.0,51.0,-100.00,NE,35,2.0,4.0,89,-99.99,,,-99.99,,2013-05-07 08:21:00,
2013-05-07 04:32:00,54.0,51.0,-100.00,NE,35,2.0,5.0,89,-99.99,,,-99.99,,2013-05-07 08:32:00,
2013-05-07 04:42:00,54.0,51.0,-100.00,NE,40,2.0,4.0,89,-99.99,,,-99.99,,2013-05-07 08:42:00,
2013-05-07 04:52:00,54.0,51.0,-100.00,NE,35,2.0,4.0,89,-99.99,,,-99.99,,2013-05-07 08:52:00,
2013-05-07 05:01:00,54.0,51.0,-100.00,NNE,25,2.0,4.0,89,-99.99,,,-99.99,,2013-05-07 09:01:00,
2013-05-07 05:11:00,53.0,50.0,-100.00,NNE,25,2.0,4.0,89,-99.99,,,-99.99,,2013-05-07 09:11:00,
2013-05-07 05:22:00,53.0,50.0,-100.00,SSE,155,1.0,4.0,89,-99.99,,,-99.99,,2013-05-07 09:22:00,
2013-05-07 05:33:00,53.0,50.0,-100.00,NNE,20,1.0,2.0,89,-99.99,,,-99.99,,2013-05-07 09:33:00,
2013-05-07 05:42:00,53.0,50.0,-100.00,South,170,1.0,2.0,89,-99.99,,,-99.99,,2013-05-07 09:42:00,
2013-05-07 05:52:00,53.0,51.0,-100.00,East,90,0.0,2.0,90,-99.99,,,-99.99,,2013-05-07 09:52:00,
2013-05-07 06:03:00,53.0,51.0,-100.00,NE,35,1.0,2.0,90,-99.99,,,-99.99,,2013-05-07 10:03:00,
2013-05-07 06:12:00,54.0,51.0,-100.00,SSW,210,1.0,4.0,90,-99.99,,,-99.99,,2013-05-07 10:12:00,
2013-05-07 06:23:00,53.0,50.0,-100.00,North,0,2.0,3.0,90,-99.99,,,-99.99,,2013-05-07 10:23:00,
2013-05-07 06:32:00,53.0,51.0,-100.00,North,5,0.0,2.0,90,-99.99,,,-99.99,,2013-05-07 10:32:00,
2013-05-07 06:42:00,53.0,51.0,-100.00,SSE,165,0.0,2.0,91,-99.99,,,-99.99,,2013-05-07 10:42:00,
2013-05-07 06:52:00,54.0,51.0,-100.00,SW,225,0.0,3.0,91,-99.99,,,-99.99,,2013-05-07 10:52:00,
2013-05-07 07:02:00,54.0,51.0,-100.00,SE,140,1.0,2.0,92,-99.99,,,-99.99,,2013-05-07 11:02:00,
2013-05-07 07:12:00,53.0,51.0,-100.00,North,5,1.0,2.0,92,-99.99,,,-99.99,,2013-05-07 11:12:00,
2013-05-07 07:22:00,54.0,52.0,-100.00,South,180,0.0,2.0,92,-99.99,,,-99.99,,2013-05-07 11:22:00,
2013-05-07 07:32:00,53.0,51.0,-100.00,ESE,115,0.0,2.0,93,-99.99,,,-99.99,,2013-05-07 11:32:00,
2013-05-07 07:42:00,54.0,52.0,-100.00,North,0,2.0,5.0,94,-99.99,,,-99.99,,2013-05-07 11:42:00,
2013-05-07 07:52:00,53.0,52.0,-100.00,North,5,1.0,3.0,94,-99.99,,,-99.99,,2013-05-07 11:52:00,
2013-05-07 08:02:00,54.0,53.0,-100.00,North,0,1.0,2.0,94,-99.99,,,-99.99,,2013-05-07 12:02:00,
2013-05-07 08:11:00,55.0,54.0,-100.00,SW,230,1.0,4.0,94,-99.99,,,-99.99,,2013-05-07 12:11:00,
2013-05-07 08:21:00,55.0,54.0,-100.00,SW,230,1.0,4.0,94,-99.99,,,-99.99,,2013-05-07 12:21:00,
2013-05-07 08:32:00,57.0,56.0,-100.00,East,100,1.0,4.0,94,-99.99,,,-99.99,,2013-05-07 12:32:00,
2013-05-07 08:42:00,58.0,57.0,-100.00,East,80,2.0,4.0,94,-99.99,,,-99.99,,2013-05-07 12:42:00,
2013-05-07 08:52:00,59.0,57.0,-100.00,ENE,70,1.0,4.0,93,-99.99,,,-99.99,,2013-05-07 12:52:00,
2013-05-07 09:02:00,61.0,59.0,-100.00,NE,35,3.0,6.0,93,-99.99,,,-99.99,,2013-05-07 13:02:00,
2013-05-07 09:11:00,61.0,59.0,-100.00,North,5,1.0,6.0,93,-99.99,,,-99.99,,2013-05-07 13:11:00,
2013-05-07 09:21:00,62.0,60.0,-100.00,NE,40,4.0,7.0,92,-99.99,,,-99.99,,2013-05-07 13:21:00,
2013-05-07 09:32:00,63.0,60.0,-100.00,ENE,75,4.0,9.0,92,-99.99,,,-99.99,,2013-05-07 13:32:00,
2013-05-07 09:42:00,62.0,60.0,-100.00,ENE,65,8.0,10.0,91,-99.99,,,-99.99,,2013-05-07 13:42:00,
2013-05-07 09:52:00,63.0,60.0,-100.00,East,80,6.0,9.0,90,-99.99,,,-99.99,,2013-05-07 13:52:00,
2013-05-07 10:02:00,63.0,60.0,-100.00,NE,55,5.0,11.0,89,-99.99,,,-99.99,,2013-05-07 14:02:00,
2013-05-07 10:11:00,65.0,61.0,-100.00,ENE,75,4.0,10.0,87,-99.99,,,-99.99,,2013-05-07 14:11:00,
2013-05-07 10:21:00,65.0,60.0,-100.00,NE,55,6.0,11.0,84,-99.99,,,-99.99,,2013-05-07 14:21:00,
2013-05-07 10:32:00,65.0,60.0,-100.00,ENE,65,9.0,13.0,83,-99.99,,,-99.99,,2013-05-07 14:32:00,
2013-05-07 10:42:00,65.0,60.0,-100.00,ENE,65,9.0,14.0,82,-99.99,,,-99.99,,2013-05-07 14:42:00,
2013-05-07 10:52:00,65.0,60.0,-100.00,ENE,70,7.0,13.0,82,-99.99,,,-99.99,,2013-05-07 14:52:00,
2013-05-07 11:01:00,66.0,60.0,-100.00,ENE,70,8.0,13.0,81,-99.99,,,-99.99,,2013-05-07 15:01:00,
2013-05-07 11:12:00,67.0,60.0,-100.00,East,85,5.0,14.0,79,-99.99,,,-99.99,,2013-05-07 15:12:00,
2013-05-07 11:21:00,66.0,59.0,-100.00,ENE,65,11.0,16.0,78,-99.99,,,-99.99,,2013-05-07 15:21:00,
2013-05-07 11:33:00,67.0,60.0,-100.00,ENE,60,9.0,16.0,77,-99.99,,,-99.99,,2013-05-07 15:33:00,
2013-05-07 11:42:00,67.0,60.0,-100.00,ENE,60,9.0,16.0,77,-99.99,,,-99.99,,2013-05-07 15:42:00,
2013-05-07 11:53:00,67.0,60.0,-100.00,ENE,60,7.0,13.0,77,-99.99,,,-99.99,,2013-05-07 15:53:00,
2013-05-07 12:03:00,68.0,60.0,-100.00,ENE,65,8.0,14.0,77,-99.99,,,-99.99,,2013-05-07 16:03:00,
2013-05-07 12:12:00,68.0,60.0,-100.00,ENE,60,8.0,14.0,75,-99.99,,,-99.99,,2013-05-07 16:12:00,
2013-05-07 12:22:00,68.0,60.0,-100.00,NE,45,7.0,14.0,75,-99.99,,,-99.99,,2013-05-07 16:22:00,
2013-05-07 12:32:00,68.0,60.0,-100.00,NE,40,9.0,17.0,76,-99.99,,,-99.99,,2013-05-07 16:32:00,
2013-05-07 12:41:00,68.0,60.0,-100.00,East,90,7.0,16.0,76,-99.99,,,-99.99,,2013-05-07 16:41:00,
2013-05-07 12:51:00,67.0,60.0,-100.00,NE,45,11.0,16.0,75,-99.99,,,-99.99,,2013-05-07 16:51:00,
2013-05-07 13:01:00,67.0,59.0,-100.00,ENE,75,11.0,17.0,76,-99.99,,,-99.99,,2013-05-07 17:01:00,
2013-05-07 13:12:00,68.0,60.0,-100.00,ENE,70,7.0,19.0,74,-99.99,,,-99.99,,2013-05-07 17:12:00,
2013-05-07 13:21:00,68.0,59.0,-100.00,ENE,65,9.0,16.0,73,-99.99,,,-99.99,,2013-05-07 17:21:00,
2013-05-07 13:32:00,68.0,59.0,-100.00,NE,55,10.0,18.0,73,-99.99,,,-99.99,,2013-05-07 17:32:00,
2013-05-07 13:41:00,69.0,59.0,-100.00,NE,55,11.0,16.0,71,-99.99,,,-99.99,,2013-05-07 17:41:00,
2013-05-07 13:52:00,69.0,58.0,-100.00,ENE,65,12.0,17.0,70,-99.99,,,-99.99,,2013-05-07 17:52:00,
2013-05-07 14:01:00,69.0,59.0,-100.00,ENE,65,9.0,16.0,69,-99.99,,,-99.99,,2013-05-07 18:01:00,
2013-05-07 14:11:00,70.0,58.0,-100.00,East,95,8.0,15.0,67,-99.99,,,-99.99,,2013-05-07 18:11:00,
2013-05-07 14:21:00,70.0,58.0,-100.00,NE,55,9.0,16.0,66,-99.99,,,-99.99,,2013-05-07 18:21:00,
2013-05-07 14:31:00,71.0,58.0,-100.00,East,80,10.0,16.0,64,-99.99,,,-99.99,,2013-05-07 18:31:00,
2013-05-07 14:42:00,71.0,58.0,-100.00,East,80,10.0,16.0,64,-99.99,,,-99.99,,2013-05-07 18:42:00,
2013-05-07 14:51:00,71.0,58.0,-100.00,East,80,9.0,16.0,63,-99.99,,,-99.99,,2013-05-07 18:51:00,
2013-05-07 15:02:00,70.0,58.0,-100.00,NE,55,10.0,16.0,64,-99.99,,,-99.99,,2013-05-07 19:02:00,
2013-05-07 15:11:00,71.0,59.0,-100.00,NE,50,8.0,16.0,64,-99.99,,,-99.99,,2013-05-07 19:11:00,
2013-05-07 15:21:00,71.0,58.0,-100.00,ENE,65,9.0,16.0,64,-99.99,,,-99.99,,2013-05-07 19:21:00,
2013-05-07 15:32:00,71.0,58.0,-100.00,East,100,10.0,18.0,63,-99.99,,,-99.99,,2013-05-07 19:32:00,
2013-05-07 15:42:00,71.0,58.0,-100.00,ENE,75,13.0,17.0,63,-99.99,,,-99.99,,2013-05-07 19:42:00,
2013-05-07 15:52:00,71.0,58.0,-100.00,ENE,75,13.0,17.0,63,-99.99,,,-99.99,,2013-05-07 19:52:00,
2013-05-07 16:02:00,71.0,57.0,-100.00,East,80,11.0,17.0,62,-99.99,,,-99.99,,2013-05-07 20:02:00,
2013-05-07 16:12:00,71.0,57.0,-100.00,East,80,10.0,19.0,61,-99.99,,,-99.99,,2013-05-07 20:12:00,
2013-05-07 16:22:00,71.0,57.0,-100.00,ENE,70,12.0,18.0,60,-99.99,,,-99.99,,2013-05-07 20:22:00,
2013-05-07 16:32:00,71.0,57.0,-100.00,ENE,75,11.0,17.0,60,-99.99,,,-99.99,,2013-05-07 20:32:00,
2013-05-07 16:42:00,73.0,58.0,-100.00,ENE,65,6.0,15.0,59,-99.99,,,-99.99,,2013-05-07 20:42:00,
2013-05-07 16:51:00,72.0,57.0,-100.00,ENE,70,8.0,14.0,58,-99.99,,,-99.99,,2013-05-07 20:51:00,
2013-05-07 17:01:00,71.0,56.0,-100.00,NE,55,12.0,17.0,59,-99.99,,,-99.99,,2013-05-07 21:01:00,
2013-05-07 17:11:00,71.0,57.0,-100.00,East,80,10.0,17.0,59,-99.99,,,-99.99,,2013-05-07 21:11:00,
2013-05-07 17:22:00,71.0,56.0,-100.00,ENE,60,10.0,15.0,61,-99.99,,,-99.99,,2013-05-07 21:22:00,
2013-05-07 17:33:00,69.0,56.0,-100.00,ENE,75,10.0,17.0,61,-99.99,,,-99.99,,2013-05-07 21:33:00,
2013-05-07 17:42:00,70.0,56.0,-100.00,ENE,70,9.0,14.0,62,-99.99,,,-99.99,,2013-05-07 21:42:00,
2013-05-07 17:52:00,70.0,56.0,-100.00,East,90,7.0,15.0,61,-99.99,,,-99.99,,2013-05-07 21:52:00,
2013-05-07 18:02:00,70.0,56.0,-100.00,ENE,70,10.0,16.0,61,-99.99,,,-99.99,,2013-05-07 22:02:00,
2013-05-07 18:13:00,71.0,57.0,-100.00,ENE,70,4.0,14.0,61,-99.99,,,-99.99,,2013-05-07 22:13:00,
2013-05-07 18:22:00,71.0,56.0,-100.00,East,80,7.0,15.0,60,-99.99,,,-99.99,,2013-05-07 22:22:00,
2013-05-07 18:33:00,71.0,57.0,-100.00,East,95,7.0,13.0,60,-99.99,,,-99.99,,2013-05-07 22:33:00,
2013-05-07 18:42:00,70.0,56.0,-100.00,ENE,75,10.0,14.0,61,-99.99,,,-99.99,,2013-05-07 22:42:00,
2013-05-07 18:52:00,70.0,56.0,-100.00,ESE,105,5.0,14.0,62,-99.99,,,-99.99,,2013-05-07 22:52:00,
2013-05-07 19:02:00,70.0,56.0,-100.00,ENE,70,9.0,13.0,63,-99.99,,,-99.99,,2013-05-07 23:02:00,
2013-05-07 19:12:00,70.0,57.0,-100.00,East,80,10.0,14.0,62,-99.99,,,-99.99,,2013-05-07 23:12:00,
2013-05-07 19:21:00,69.0,56.0,-100.00,ENE,75,7.0,14.0,62,-99.99,,,-99.99,,2013-05-07 23:21:00,
2013-05-07 19:32:00,69.0,56.0,-100.00,East,100,6.0,11.0,62,-99.99,,,-99.99,,2013-05-07 23:32:00,
2013-05-07 19:42:00,70.0,56.0,-100.00,ENE,70,4.0,9.0,62,-99.99,,,-99.99,,2013-05-07 23:42:00,
2013-05-07 19:52:00,70.0,56.0,-100.00,East,85,5.0,9.0,61,-99.99,,,-99.99,,2013-05-07 23:52:00,
2013-05-07 20:02:00,70.0,56.0,-100.00,East,80,5.0,9.0,61,-99.99,,,-99.99,,2013-05-08 00:02:00,
2013-05-07 20:12:00,69.0,55.0,-100.00,SE,125,4.0,9.0,61,-99.99,,,-99.99,,2013-05-08 00:12:00,
2013-05-07 20:22:00,68.0,55.0,-100.00,East,85,4.0,11.0,61,-99.99,,,-99.99,,2013-05-08 00:22:00,
2013-05-07 20:32:00,68.0,55.0,-100.00,East,100,4.0,9.0,62,-99.99,,,-99.99,,2013-05-08 00:32:00,
2013-05-07 20:42:00,68.0,55.0,-100.00,ESE,115,4.0,7.0,63,-99.99,,,-99.99,,2013-05-08 00:42:00,
2013-05-07 20:51:00,67.0,55.0,-100.00,East,95,3.0,6.0,64,-99.99,,,-99.99,,2013-05-08 00:51:00,
2013-05-07 21:02:00,67.0,55.0,-100.00,East,85,2.0,7.0,65,-99.99,,,-99.99,,2013-05-08 01:02:00,
2013-05-07 21:11:00,66.0,54.0,-100.00,East,100,4.0,7.0,65,-99.99,,,-99.99,,2013-05-08 01:11:00,
2013-05-07 21:22:00,66.0,54.0,-100.00,East,100,2.0,6.0,65,-99.99,,,-99.99,,2013-05-08 01:22:00,
2013-05-07 21:32:00,66.0,54.0,-100.00,ESE,110,2.0,6.0,65,-99.99,,,-99.99,,2013-05-08 01:32:00,
2013-05-07 21:42:00,66.0,54.0,-100.00,East,90,2.0,4.0,65,-99.99,,,-99.99,,2013-05-08 01:42:00,
2013-05-07 21:52:00,65.0,54.0,-100.00,East,90,2.0,4.0,65,-99.99,,,-99.99,,2013-05-08 01:52:00,
2013-05-07 22:02:00,65.0,54.0,-100.00,ESE,105,2.0,4.0,66,-99.99,,,-99.99,,2013-05-08 02:02:00,
2013-05-07 22:12:00,65.0,53.0,-100.00,East,95,2.0,4.0,66,-99.99,,,-99.99,,2013-05-08 02:12:00,
2013-05-07 22:22:00,65.0,53.0,-100.00,East,100,3.0,7.0,66,-99.99,,,-99.99,,2013-05-08 02:22:00,
2013-05-07 22:32:00,64.0,53.0,-100.00,ESE,110,2.0,4.0,67,-99.99,,,-99.99,,2013-05-08 02:32:00,
2013-05-07 22:42:00,64.0,53.0,-100.00,ESE,110,2.0,4.0,67,-99.99,,,-99.99,,2013-05-08 02:42:00,
2013-05-07 22:52:00,64.0,53.0,-100.00,East,95,2.0,4.0,68,-99.99,,,-99.99,,2013-05-08 02:52:00,
2013-05-07 23:02:00,64.0,53.0,-100.00,ENE,70,2.0,4.0,69,-99.99,,,-99.99,,2013-05-08 03:02:00,
2013-05-07 23:11:00,64.0,54.0,-100.00,ENE,65,1.0,4.0,69,-99.99,,,-99.99,,2013-05-08 03:11:00,
2013-05-07 23:22:00,64.0,54.0,-100.00,ENE,60,2.0,4.0,70,-99.99,,,-99.99,,2013-05-08 03:22:00,
2013-05-07 23:33:00,64.0,54.0,-100.00,East,90,3.0,6.0,71,-99.99,,,-99.99,,2013-05-08 03:33:00,
2013-05-07 23:43:00,63.0,54.0,-100.00,NE,35,2.0,4.0,71,-99.99,,,-99.99,,2013-05-08 03:43:00,
2013-05-07 23:52:00,63.0,55.0,-100.00,South,170,0.0,3.0,73,-99.99,,,-99.99,,2013-05-08 03:52:00,